Time,TemperatureF,DewpointF,PressureIn,WindDirection,WindDirectionDegrees,WindSpeedMPH,WindSpeedGustMPH,Humidity,HourlyPrecipIn,Conditions,Clouds,dailyrainin,SoftwareType,DateUTC
2012-05-06 00:10:00,47.2,33.0,29.95,NNE,23,2.0,3.0,59,0.00,,,0.00,weatherlink.com 1.10,2012-05-06 07:10:00,
2012-05-06 00:25:00,50.5,31.0,29.95,NNE,22,0.0,2.0,48,0.00,,,0.00,weatherlink.com 1.10,2012-05-06 07:25:00,
2012-05-06 00:40:00,49.5,31.0,29.95,NNE,33,1.0,2.0,49,0.00,,,0.00,weatherlink.com 1.10,2012-05-06 07:40:00,
2012-05-06 00:55:00,52.8,31.0,29.94,NE,50,0.0,2.0,44,0.00,,,0.00,weatherlink.com 1.10,2012-05-06 07:55:00,
2012-05-06 01:10:00,51.6,28.0,29.93,North,6,1.0,3.0,40,0.00,,,0.00,weatherlink.com 1.10,2012-05-06 08:10:00,
2012-05-06 01:25:00,54.7,24.0,29.93,North,8,3.0,5.0,31,0.00,,,0.00,weatherlink.com 1.10,2012-05-06 08:25:00,
2012-05-06 01:40:00,55.0,25.0,29.92,NNE,20,2.0,4.0,31,0.00,,,0.00,weatherlink.com 1.10,2012-05-06 08:40:00,
2012-05-06 01:55:00,56.3,23.0,29.92,NE,36,3.0,6.0,27,0.00,,,0.00,weatherlink.com 1.10,2012-05-06 08:55:00,
2012-05-06 02:10:00,56.3,23.0,29.91,NNE,32,1.0,5.0,28,0.00,,,0.00,weatherlink.com 1.10,2012-05-06 09:10:00,
2012-05-06 02:25:00,55.2,23.0,29.91,NE,42,1.0,3.0,29,0.00,,,0.00,weatherlink.com 1.10,2012-05-06 09:25:00,
2012-05-06 02:40:00,55.6,23.0,29.91,NNE,19,3.0,4.0,28,0.00,,,0.00,weatherlink.com 1.10,2012-05-06 09:40:00,
2012-05-06 02:55:00,55.6,23.0,29.91,NE,36,2.0,5.0,28,0.00,,,0.00,weatherlink.com 1.10,2012-05-06 09:55:00,
2012-05-06 03:10:00,56.2,22.0,29.91,NW,318,2.0,5.0,27,0.00,,,0.00,weatherlink.com 1.10,2012-05-06 10:10:00,
2012-05-06 03:25:00,55.8,22.0,29.91,NNE,25,2.0,6.0,27,0.00,,,0.00,weatherlink.com 1.10,2012-05-06 10:25:00,
2012-05-06 03:40:00,55.6,22.0,29.91,NNE,26,4.0,6.0,27,0.00,,,0.00,weatherlink.com 1.10,2012-05-06 10:40:00,
2012-05-06 03:55:00,55.9,22.0,29.91,NE,38,4.0,5.0,27,0.00,,,0.00,weatherlink.com 1.10,2012-05-06 10:55:00,
2012-05-06 04:10:00,56.1,21.0,29.90,NNE,12,4.0,6.0,26,0.00,,,0.00,weatherlink.com 1.10,2012-05-06 11:10:00,
2012-05-06 04:25:00,56.2,22.0,29.90,North,357,3.0,5.0,26,0.00,,,0.00,weatherlink.com 1.10,2012-05-06 11:25:00,
2012-05-06 04:40:00,56.5,21.0,29.90,NNE,13,2.0,6.0,25,0.00,,,0.00,weatherlink.com 1.10,2012-05-06 11:40:00,
2012-05-06 04:55:00,56.3,21.0,29.90,NNW,342,2.0,6.0,25,0.00,,,0.00,weatherlink.com 1.10,2012-05-06 11:55:00,
2012-05-06 05:10:00,56.3,20.0,29.90,NNE,23,3.0,6.0,24,0.00,,,0.00,weatherlink.com 1.10,2012-05-06 12:10:00,
2012-05-06 05:26:00,55.8,20.0,29.90,NNW,338,4.0,5.0,25,0.00,,,0.00,weatherlink.com 1.10,2012-05-06 12:26:00,
2012-05-06 05:40:00,56.0,20.0,29.90,NNW,338,3.0,5.0,25,0.00,,,0.00,weatherlink.com 1.10,2012-05-06 12:40:00,
2012-05-06 05:55:00,55.6,20.0,29.91,NE,50,1.0,5.0,25,0.00,,,0.00,weatherlink.com 1.10,2012-05-06 12:55:00,
2012-05-06 06:11:00,55.7,20.0,29.91,NNE,18,2.0,6.0,25,0.00,,,0.00,weatherlink.com 1.10,2012-05-06 13:11:00,
2012-05-06 06:26:00,55.9,21.0,29.91,North,11,3.0,5.0,26,0.00,,,0.00,weatherlink.com 1.10,2012-05-06 13:26:00,
2012-05-06 06:41:00,55.7,21.0,29.91,NE,43,2.0,5.0,26,0.00,,,0.00,weatherlink.com 1.10,2012-05-06 13:41:00,
2012-05-06 06:56:00,55.8,22.0,29.91,NE,38,2.0,5.0,27,0.00,,,0.00,weatherlink.com 1.10,2012-05-06 13:56:00,
2012-05-06 07:11:00,55.0,27.0,29.91,NNE,19,1.0,3.0,34,0.00,,,0.00,weatherlink.com 1.10,2012-05-06 14:11:00,
2012-05-06 07:26:00,55.9,25.0,29.91,ENE,61,2.0,4.0,30,0.00,,,0.00,weatherlink.com 1.10,2012-05-06 14:26:00,
2012-05-06 07:41:00,57.0,26.0,29.91,NNE,12,2.0,3.0,31,0.00,,,0.00,weatherlink.com 1.10,2012-05-06 14:41:00,
2012-05-06 07:56:00,58.1,28.0,29.91,NNW,341,0.0,2.0,32,0.00,,,0.00,weatherlink.com 1.10,2012-05-06 14:56:00,
2012-05-06 08:11:00,58.6,34.0,29.91,North,4,0.0,1.0,39,0.00,,,0.00,weatherlink.com 1.10,2012-05-06 15:11:00,
2012-05-06 08:26:00,58.6,30.0,29.91,NE,46,0.0,1.0,34,0.00,,,0.00,weatherlink.com 1.10,2012-05-06 15:26:00,
2012-05-06 08:41:00,60.0,26.0,29.91,ESE,117,0.0,2.0,27,0.00,,,0.00,weatherlink.com 1.10,2012-05-06 15:41:00,
2012-05-06 08:56:00,61.1,28.0,29.92,ESE,105,0.0,3.0,28,0.00,,,0.00,weatherlink.com 1.10,2012-05-06 15:56:00,
2012-05-06 09:11:00,62.4,24.0,29.92,East,101,2.0,3.0,23,0.00,,,0.00,weatherlink.com 1.10,2012-05-06 16:11:00,
2012-05-06 09:26:00,63.0,27.0,29.92,SW,219,0.0,3.0,26,0.00,,,0.00,weatherlink.com 1.10,2012-05-06 16:26:00,
2012-05-06 09:56:00,63.4,25.0,29.93,ESE,106,3.0,4.0,23,0.00,,,0.00,weatherlink.com 1.10,2012-05-06 16:56:00,
2012-05-06 10:11:00,63.1,27.0,29.93,SSW,212,1.0,2.0,25,0.00,,,0.00,weatherlink.com 1.10,2012-05-06 17:11:00,
2012-05-06 10:26:00,64.1,30.0,29.93,SW,217,0.0,4.0,28,0.00,,,0.00,weatherlink.com 1.10,2012-05-06 17:26:00,
2012-05-06 10:56:00,65.0,35.0,29.93,SW,214,0.0,5.0,33,0.00,,,0.00,weatherlink.com 1.10,2012-05-06 17:56:00,
2012-05-06 11:11:00,67.1,35.0,29.93,SSW,195,0.0,4.0,30,0.00,,,0.00,weatherlink.com 1.10,2012-05-06 18:11:00,
2012-05-06 11:26:00,67.6,37.0,29.93,SSW,209,3.0,7.0,32,0.00,,,0.00,weatherlink.com 1.10,2012-05-06 18:26:00,
2012-05-06 11:41:00,68.9,38.0,29.93,SW,217,3.0,7.0,32,0.00,,,0.00,weatherlink.com 1.10,2012-05-06 18:41:00,
2012-05-06 11:56:00,69.2,39.0,29.93,SW,219,2.0,2.0,33,0.00,,,0.00,weatherlink.com 1.10,2012-05-06 18:56:00,
2012-05-06 12:11:00,69.9,43.0,29.93,SSW,205,1.0,5.0,38,0.00,,,0.00,weatherlink.com 1.10,2012-05-06 19:11:00,
2012-05-06 12:26:00,70.3,32.0,29.92,SW,226,0.0,4.0,24,0.00,,,0.00,weatherlink.com 1.10,2012-05-06 19:26:00,
2012-05-06 12:41:00,70.2,39.0,29.92,SW,225,2.0,4.0,32,0.00,,,0.00,weatherlink.com 1.10,2012-05-06 19:41:00,
2012-05-06 12:56:00,70.1,41.0,29.91,SSW,210,2.0,4.0,35,0.00,,,0.00,weatherlink.com 1.10,2012-05-06 19:56:00,
2012-05-06 13:11:00,68.9,39.0,29.91,WSW,250,1.0,3.0,33,0.00,,,0.00,weatherlink.com 1.10,2012-05-06 20:11:00,
2012-05-06 13:26:00,69.3,39.0,29.91,NE,43,0.0,4.0,33,0.00,,,0.00,weatherlink.com 1.10,2012-05-06 20:26:00,
2012-05-06 13:41:00,68.2,38.0,29.91,North,9,0.0,4.0,33,0.00,,,0.00,weatherlink.com 1.10,2012-05-06 20:41:00,
2012-05-06 13:56:00,66.7,36.0,29.91,NW,325,0.0,3.0,32,0.00,,,0.00,weatherlink.com 1.10,2012-05-06 20:56:00,
2012-05-06 14:11:00,70.1,37.0,29.90,WSW,242,1.0,5.0,30,0.00,,,0.00,weatherlink.com 1.10,2012-05-06 21:11:00,
2012-05-06 14:27:00,70.8,40.0,29.90,North,357,5.0,5.0,33,0.00,,,0.00,weatherlink.com 1.10,2012-05-06 21:27:00,
2012-05-06 14:57:00,70.7,40.0,29.90,SW,215,2.0,5.0,33,0.00,,,0.00,weatherlink.com 1.10,2012-05-06 21:57:00,
2012-05-06 15:12:00,68.6,42.0,29.89,SW,232,1.0,4.0,38,0.00,,,0.00,weatherlink.com 1.10,2012-05-06 22:12:00,
2012-05-06 15:27:00,69.2,42.0,29.90,West,273,1.0,7.0,37,0.00,,,0.00,weatherlink.com 1.10,2012-05-06 22:27:00,
2012-05-06 15:42:00,69.0,42.0,29.89,WSW,239,0.0,5.0,37,0.00,,,0.00,weatherlink.com 1.10,2012-05-06 22:42:00,
2012-05-06 15:57:00,69.4,38.0,29.89,SSW,198,1.0,4.0,32,0.00,,,0.00,weatherlink.com 1.10,2012-05-06 22:57:00,
2012-05-06 16:12:00,69.7,38.0,29.89,SSW,205,2.0,4.0,31,0.00,,,0.00,weatherlink.com 1.10,2012-05-06 23:12:00,
2012-05-06 16:27:00,70.4,42.0,29.88,NW,319,2.0,3.0,36,0.00,,,0.00,weatherlink.com 1.10,2012-05-06 23:27:00,
2012-05-06 16:42:00,69.5,39.0,29.88,ESE,110,0.0,5.0,33,0.00,,,0.00,weatherlink.com 1.10,2012-05-06 23:42:00,
2012-05-06 16:57:00,66.5,43.0,29.89,ENE,60,3.0,8.0,43,0.00,,,0.00,weatherlink.com 1.10,2012-05-06 23:57:00,
2012-05-06 17:12:00,66.0,28.0,29.89,SSE,156,0.0,6.0,24,0.00,,,0.00,weatherlink.com 1.10,2012-05-07 00:12:00,
2012-05-06 17:27:00,66.2,48.0,29.89,North,358,3.0,6.0,52,0.00,,,0.00,weatherlink.com 1.10,2012-05-07 00:27:00,
2012-05-06 17:42:00,64.0,48.0,29.89,North,349,1.0,3.0,57,0.00,,,0.00,weatherlink.com 1.10,2012-05-07 00:42:00,
2012-05-06 17:57:00,62.7,48.0,29.89,NW,317,2.0,3.0,60,0.00,,,0.00,weatherlink.com 1.10,2012-05-07 00:57:00,
2012-05-06 18:12:00,63.7,49.0,29.88,North,353,0.0,3.0,59,0.00,,,0.00,weatherlink.com 1.10,2012-05-07 01:12:00,
2012-05-06 18:27:00,62.3,48.0,29.88,ENE,61,1.0,4.0,61,0.00,,,0.00,weatherlink.com 1.10,2012-05-07 01:27:00,
2012-05-06 18:42:00,60.4,49.0,29.89,NW,322,0.0,3.0,66,0.00,,,0.00,weatherlink.com 1.10,2012-05-07 01:42:00,
2012-05-06 18:57:00,58.8,49.0,29.89,NNE,16,1.0,2.0,70,0.00,,,0.00,weatherlink.com 1.10,2012-05-07 01:57:00,
2012-05-06 19:12:00,57.7,49.0,29.89,North,357,0.0,2.0,72,0.00,,,0.00,weatherlink.com 1.10,2012-05-07 02:12:00,
2012-05-06 19:27:00,56.3,48.0,29.89,NNE,12,1.0,2.0,75,0.00,,,0.00,weatherlink.com 1.10,2012-05-07 02:27:00,
2012-05-06 19:42:00,54.5,46.0,29.90,NNE,12,1.0,1.0,73,0.00,,,0.00,weatherlink.com 1.10,2012-05-07 02:42:00,
2012-05-06 19:57:00,52.2,40.0,29.90,NNE,19,1.0,2.0,64,0.00,,,0.00,weatherlink.com 1.10,2012-05-07 02:57:00,
2012-05-06 20:12:00,53.0,39.0,29.91,NNE,18,1.0,2.0,60,0.00,,,0.00,weatherlink.com 1.10,2012-05-07 03:12:00,
2012-05-06 20:27:00,54.5,36.0,29.91,NNE,13,1.0,2.0,50,0.00,,,0.00,weatherlink.com 1.10,2012-05-07 03:27:00,
2012-05-06 20:42:00,54.2,33.0,29.92,North,349,1.0,3.0,44,0.00,,,0.00,weatherlink.com 1.10,2012-05-07 03:42:00,
2012-05-06 20:57:00,52.9,30.0,29.92,NNE,18,1.0,3.0,41,0.00,,,0.00,weatherlink.com 1.10,2012-05-07 03:57:00,
2012-05-06 21:12:00,55.4,27.0,29.93,North,349,3.0,5.0,33,0.00,,,0.00,weatherlink.com 1.10,2012-05-07 04:12:00,
2012-05-06 21:27:00,56.5,23.0,29.93,North,349,2.0,5.0,27,0.00,,,0.00,weatherlink.com 1.10,2012-05-07 04:27:00,
2012-05-06 21:42:00,57.3,22.0,29.93,NE,42,3.0,6.0,25,0.00,,,0.00,weatherlink.com 1.10,2012-05-07 04:42:00,
2012-05-06 22:12:00,55.9,19.0,29.94,NNW,345,2.0,5.0,24,0.00,,,0.00,weatherlink.com 1.10,2012-05-07 05:12:00,
2012-05-06 22:27:00,56.3,14.0,29.94,North,5,3.0,6.0,19,0.00,,,0.00,weatherlink.com 1.10,2012-05-07 05:27:00,
2012-05-06 22:42:00,56.1,16.0,29.93,NNE,29,4.0,6.0,21,0.00,,,0.00,weatherlink.com 1.10,2012-05-07 05:42:00,
2012-05-06 22:57:00,54.9,17.0,29.93,North,357,3.0,4.0,22,0.00,,,0.00,weatherlink.com 1.10,2012-05-07 05:57:00,
2012-05-06 23:12:00,55.4,17.0,29.93,North,5,3.0,5.0,22,0.00,,,0.00,weatherlink.com 1.10,2012-05-07 06:12:00,
2012-05-06 23:27:00,55.7,15.0,29.93,North,5,3.0,5.0,20,0.00,,,0.00,weatherlink.com 1.10,2012-05-07 06:27:00,
2012-05-06 23:42:00,55.4,15.0,29.93,North,354,3.0,4.0,20,0.00,,,0.00,weatherlink.com 1.10,2012-05-07 06:42:00,
2012-05-06 23:57:00,55.5,14.0,29.92,NNE,29,2.0,7.0,19,0.00,,,0.00,weatherlink.com 1.10,2012-05-07 06:57:00,